Location: Unspecified
(27.3048°N, 0.0000°E)
Time: 14:26:33
(UTC+00:00)

COSMOS 2528 - Visible Passes

Search period start: 04 April 2026 00:00
Search period end: 14 April 2026 00:00
Orbit: 901 x 910 km, 67.1° (Epoch: 29 March)

Date Brightness Start Highest point End Pass type
(mag) Time Alt. Az. Time Alt. Az. Time Alt. Az.
4 Apr ? 04:23:54 10° S 04:29:22 38° ESE 04:34:52 10° NE visible
5 Apr ? 04:27:31 10° S 04:33:22 56° ESE 04:39:13 10° NNE visible
6 Apr ? 04:31:23 10° SSW 04:37:22 81° ESE 04:43:24 10° NNE visible
7 Apr ? 02:54:27 10° ESE 02:56:13 11° ESE 02:57:59 10° E visible
7 Apr ? 04:35:56 12° SSW 04:41:26 71° WNW 04:47:26 10° NNE visible
8 Apr ? 02:57:44 14° SE 03:00:07 18° ESE 03:03:56 10° ENE visible
8 Apr ? 04:40:56 16° SW 04:45:32 49° WNW 04:51:22 10° N visible
9 Apr ? 03:02:34 24° SE 03:04:01 26° ESE 03:08:53 10° NE visible
9 Apr ? 04:45:46 17° WSW 04:49:41 35° WNW 04:55:08 10° N visible
10 Apr ? 03:07:17 37° ESE 03:07:58 38° ESE 03:13:27 10° NE visible
10 Apr ? 04:50:29 15° WSW 04:53:54 25° WNW 04:58:44 10° N visible
11 Apr ? 03:11:52 55° ESE 03:11:57 56° ESE 03:17:49 10° NNE visible
11 Apr ? 04:55:03 12° W 04:58:09 18° NW 05:02:04 10° NNW visible
12 Apr ? 03:16:22 76° ENE 03:16:22 76° ENE 03:22:00 10° NNE visible
12 Apr ? 05:00:11 10° WNW 05:02:29 12° NW 05:04:48 10° NNW visible
13 Apr ? 03:20:46 64° NNW 03:20:46 64° NNW 03:26:03 10° NNE visible
